Location: Newark
(44.4156°N, 12.1972°E)
Time: 18:49:01
(UTC+00:00)

STARLINK-1109 - Pass Details

Date: 04 February 2020
Orbit: 349 x 351 km, 53.0° (Epoch: 18 February)

Event Time Altitude Azimuth Distance (km) Brightness Sun altitude
Rises 17:09:31 0° 291° (WNW) 2,163 7.7 -8.6°
Reaches altitude 10° 17:11:58 10° 271° (W) 1,316 7.0 -9.0°
Maximum altitude 17:13:59 17° 227° (SW) 980 5.8 -9.3°
Drops below altitude 10° 17:16:00 10° 183° (S) 1,310 5.8 -9.7°
Sets 17:18:25 0° 162° (SSE) 2,147 6.6 -10.1°
